User: anonymous   Login
Location: Unspecified
(0.0000°N, 0.0000°E)
Time: 12:39:08
(UTC+00:00)
Language:

Aussat K3 - Orbit

View from above orbital plane
View from above orbital plane
View from above satellite
View from above satellite

Ground track
Ground track

The orbit data is extracted from the following two-line orbital elements,

1 18350U 87078A   15239.95828242  .00000032  00000-0  00000+0 0  9991
2 18350 014.1704 025.0812 0004887 234.5996 114.9124 00.98904537101480
Epoch (UTC): 27 August 2015 22:59:55
Eccentricity: 0.0004887
inclination: 14.1704°
perigee height: 36153 km
apogee height: 36195 km
right ascension of ascending node: 25.0812°
argument of perigee: 234.5996°
revolutions per day: 0.98904537
mean anomaly at epoch: 114.9124°
orbit number at epoch: 10148

The dashed part of the orbit path shows where the satellite is in the earth's shadow,  

DLR